Tracking 19908 objects as of 18-Oct-2019
HD Live streaming from Space Station
objects crossing your sky now

OPS 5805

Track OPS 5805 now!
OPS 5805 is classified as:


NORAD ID: 12093
Int'l Code: 1980-100A
Perigee: 1,997.1 km
Apogee: 38,374.1 km
Inclination: 63.2 °
Period: 717.8 minutes
Semi major axis: 26556 km
RCS: Unknown
Launch date: December 13, 1980
Source: United States (US)
Launch site: AIR FORCE WESTERN TEST RANGE (AFWTR)
aabbcc
Your satellite tracking list
Your tracking list is empty




NASA's NSSDC Master Catalog

Two Line Element Set (TLE):
1 12093U 80100A   19282.79448375  .00000626  00000-0  00000+0 0  9996
2 12093  63.1566 113.1442 6848947 277.8343  15.4500  2.00605960  3130
Source of the keplerian elements: AFSPC